DG3SMA-4 Weather Reports


time (UTC)temp
C
wind
direction
speed
KPH
gust
KPH
rain 1hr
cm
rain 24hr
cm
rain mn
cm
humidity
%
barometer
mb
20200226015004 3 260 19.3 19.3 0.00 0.64 0.00 87 994.7
20200226014504 3 260 19.3 19.3 0.00 0.64 0.00 86 994.7
20200226014005 4 260 19.3 19.3 0.00 0.64 0.00 86 994.7
20200226013504 4 260 19.3 32.2 0.00 0.64 0.00 85 994.7
20200226013005 4 250 32.2 32.2 0.00 0.64 0.00 85 994.7
20200226012504 4 250 32.2 32.2 0.00 0.64 0.00 85 994.7
20200226012006 4 250 32.2 32.2 0.00 0.64 0.00 86 994.7
20200226011505 4 250 32.2 32.2 0.00 0.64 0.00 86 993.7
20200226011007 4 250 32.2 32.2 0.00 0.64 0.00 86 993.7
20200226010007 4 240 25.7 25.7 0.00 0.64 0.00 87 993.7
20200226005506 4 240 25.7 25.7 0.00 0.64 0.00 86 993.7
20200226005006 4 240 25.7 25.7 0.00 0.64 0.00 86 993.7
20200226004505 5 240 25.7 25.7 0.00 0.64 0.00 85 995.7
20200226004006 5 240 25.7 25.7 0.00 0.64 0.00 85 995.7
20200226003506 5 240 25.7 25.7 0.00 0.64 0.00 85 995.7
20200226003006 5 230 22.5 22.5 0.00 0.64 0.00 85 994.7
20200226002506 5 230 22.5 22.5 0.00 0.64 0.00 85 994.7
20200226002006 5 230 22.5 22.5 0.00 0.64 0.00 84 994.7
20200226001506 5 230 22.5 22.5 0.00 0.64 0.00 84 994.7
20200226001006 5 230 22.5 22.5 0.00 0.64 0.00 84 994.7
20200226000005 5 210 16.1 16.1 0.00 0.64 0.00 84 994.7
20200225235506 5 210 16.1 16.1 0.00 0.64 0.00 84 994.7
20200225235006 5 210 16.1 16.1 0.00 0.64 0.00 84 994.7
20200225234506 5 210 16.1 16.1 0.00 0.64 0.00 84 994.7
20200225234006 5 210 16.1 16.1 0.00 0.64 0.00 83 994.7
20200225233506 5 210 16.1 19.3 0.00 0.64 0.00 83 994.7
20200225233006 5 190 19.3 19.3 0.00 0.64 0.00 83 994.7
20200225232507 5 190 19.3 19.3 0.00 0.64 0.00 83 994.7
20200225232006 5 190 19.3 19.3 0.00 0.64 0.00 83 994.7
20200225231506 5 190 19.3 19.3 0.00 0.64 0.00 83 994.7
20200225231007 5 190 19.3 19.3 0.00 0.64 0.00 83 994.7
20200225230006 5 180 16.1 16.1 0.00 0.64 0.00 82 994.7
20200225225505 5 180 16.1 16.1 0.00 0.64 0.64 82 994.7
20200225225007 5 180 16.1 16.1 0.00 0.64 0.64 80 994.7
20200225224506 4 180 16.1 16.1 0.00 0.64 0.64 79 994.7
20200225224006 4 180 16.1 16.1 0.00 0.64 0.64 78 994.7
20200225223506 4 180 16.1 16.1 0.00 0.64 0.64 78 994.7
20200225223006 4 190 16.1 16.1 0.00 0.64 0.64 77 994.7
20200225222506 4 190 16.1 16.1 0.00 0.64 0.64 77 994.7
20200225222006 4 190 16.1 16.1 0.00 0.64 0.64 77 994.7
20200225221506 4 190 16.1 16.1 0.00 0.74 0.64 77 994.7
20200225221006 4 190 16.1 16.1 0.00 0.74 0.64 78 994.7
20200225220005 4 200 12.9 12.9 0.00 0.74 0.64 78 995.7
20200225215506 4 200 12.9 12.9 0.00 0.74 0.64 78 995.7
20200225215006 4 200 12.9 12.9 0.00 0.74 0.64 78 995.7
20200225214506 4 200 12.9 12.9 0.00 0.74 0.64 78 995.7
20200225214005 4 200 12.9 12.9 0.00 0.74 0.64 78 995.7
20200225213507 4 200 12.9 20.9 0.00 0.74 0.64 79 995.7
20200225213007 4 220 20.9 20.9 0.00 0.74 0.64 80 995.7
20200225212507 4 220 20.9 20.9 0.00 0.74 0.64 79 995.7
20200225212006 4 220 20.9 20.9 0.00 0.74 0.64 76 995.7
20200225211505 4 220 20.9 20.9 0.00 0.74 0.64 76 995.7
20200225211006 4 220 20.9 22.5 0.00 0.74 0.64 74 995.7
20200225210006 4 230 22.5 22.5 0.00 0.74 0.64 74 996.7
20200225205505 5 230 22.5 22.5 0.00 0.74 0.64 73 996.7
20200225205006 5 230 22.5 22.5 0.00 0.74 0.64 74 996.7
20200225204505 5 230 22.5 22.5 0.00 0.74 0.64 71 996.7
20200225204006 5 230 22.5 22.5 0.00 0.74 0.64 70 996.7
20200225203505 5 230 22.5 22.5 0.00 0.74 0.64 70 996.7
20200225203006 5 230 16.1 16.1 0.00 0.74 0.64 70 995.7
20200225202507 5 230 16.1 16.1 0.00 0.74 0.64 68 995.7
20200225202006 5 230 16.1 16.1 0.00 0.74 0.64 68 995.7
20200225201506 5 230 16.1 16.1 0.00 0.74 0.64 68 996.7
20200225201005 5 230 16.1 20.9 0.00 0.74 0.64 67 996.7
20200225200005 5 230 20.9 20.9 0.00 0.74 0.64 66 996.7
20200225195506 5 230 20.9 20.9 0.00 0.74 0.64 66 996.7
20200225195005 6 230 20.9 20.9 0.00 0.74 0.64 66 996.7
20200225194505 6 230 20.9 20.9 0.00 0.74 0.64 66 996.7
20200225194005 6 230 20.9 20.9 0.00 0.74 0.64 65 996.7
20200225193505 6 230 20.9 24.1 0.00 0.74 0.64 65 996.7
20200225193006 6 220 24.1 24.1 0.00 0.74 0.64 65 996.7
20200225192506 6 220 24.1 24.1 0.00 0.74 0.64 64 996.7
20200225192006 6 220 24.1 24.1 0.00 0.74 0.64 64 996.7
20200225191506 6 220 24.1 24.1 0.00 0.74 0.64 64 997.7
20200225191006 6 220 24.1 24.1 0.00 0.74 0.64 63 997.7
20200225190011 6 210 16.1 16.1 0.00 0.74 0.64 62 997.7
20200225185505 6 210 16.1 16.1 0.00 0.74 0.64 61 997.7
20200225185005 6 210 16.1 16.1 0.00 0.74 0.64 60 997.7
20200225184506 6 210 16.1 16.1 0.00 0.74 0.64 59 997.7
20200225184006 6 210 16.1 16.1 0.00 0.74 0.64 59 997.7
20200225183505 6 210 16.1 16.1 0.00 0.74 0.64 58 997.7
20200225183006 7 240 14.5 14.5 0.00 0.74 0.64 56 997.7
20200225182505 7 240 14.5 14.5 0.00 0.74 0.64 56 997.7
20200225182005 7 240 14.5 14.5 0.00 0.74 0.64 55 997.7
20200225181505 7 240 14.5 14.5 0.00 0.74 0.64 54 997.7
20200225181006 7 240 14.5 14.5 0.00 0.74 0.64 54 997.7
20200225180005 7 250 14.5 14.5 0.00 0.74 0.64 53 997.7
20200225175505 7 250 14.5 14.5 0.00 0.74 0.64 53 997.7
20200225175006 7 250 14.5 14.5 0.00 0.74 0.64 53 997.7
20200225174507 7 250 14.5 14.5 0.00 0.74 0.64 53 997.7
20200225174005 7 250 14.5 14.5 0.00 0.74 0.64 52 997.7
20200225173505 7 250 14.5 14.5 0.00 0.74 0.64 52 997.7
20200225173006 7 250 14.5 14.5 0.00 0.74 0.64 52 997.7
20200225172506 7 250 14.5 14.5 0.00 0.74 0.64 52 997.7
20200225172005 7 250 14.5 14.5 0.00 0.74 0.64 52 997.7
20200225171505 8 250 14.5 14.5 0.00 0.74 0.64 52 997.7
20200225171005 8 250 14.5 19.3 0.00 0.74 0.64 52 997.7
20200225170005 8 250 19.3 19.3 0.00 0.74 0.64 52 997.7
20200225165505 8 250 19.3 19.3 0.00 0.74 0.64 51 997.7
20200225165005 8 250 19.3 19.3 0.00 0.74 0.64 51 997.7
20200225164505 8 250 19.3 19.3 0.00 0.74 0.64 50 997.7
20200225164005 8 250 19.3 19.3 0.00 0.74 0.64 50 997.7
20200225163505 8 250 19.3 22.5 0.00 0.74 0.64 49 997.7
20200225163006 8 260 22.5 22.5 0.00 0.74 0.64 50 997.7
20200225162505 9 260 22.5 22.5 0.00 0.74 0.64 50 997.7
20200225162005 9 260 22.5 22.5 0.00 0.74 0.64 50 997.7
20200225161507 9 260 22.5 22.5 0.00 0.74 0.64 50 997.7
20200225161006 9 260 22.5 32.2 0.00 0.74 0.64 49 997.7
20200225160007 10 260 32.2 32.2 0.00 0.74 0.64 49 997.7
20200225155505 10 260 32.2 32.2 0.00 0.74 0.64 48 997.7
20200225155005 10 260 32.2 32.2 0.00 0.74 0.64 48 997.7
20200225154506 10 260 32.2 32.2 0.00 0.74 0.64 48 997.7
20200225154005 10 260 32.2 32.2 0.00 0.74 0.64 47 997.7
20200225153505 10 260 32.2 41.8 0.00 0.74 0.64 47 997.7
20200225153005 10 250 41.8 41.8 0.00 0.74 0.64 47 997.7
20200225152505 10 250 41.8 41.8 0.00 0.74 0.64 47 997.7
20200225152006 10 250 41.8 41.8 0.00 0.74 0.64 48 997.7
20200225151506 10 250 41.8 41.8 0.00 0.74 0.64 48 998.7
20200225151005 10 250 41.8 41.8 0.00 0.74 0.64 48 998.7
20200225150005 10 250 38.6 38.6 0.10 0.74 0.64 50 997.7
20200225145506 10 250 38.6 38.6 0.10 0.74 0.64 50 997.7
20200225145005 10 250 38.6 38.6 0.10 0.74 0.64 50 997.7
20200225144505 10 250 38.6 38.6 0.10 0.74 0.64 50 998.7
20200225144006 10 250 38.6 38.6 0.10 0.74 0.64 49 998.7
20200225143505 11 250 38.6 45.1 0.10 0.74 0.64 48 998.7
20200225143005 11 250 45.1 45.1 0.10 0.74 0.64 50 998.7
20200225142506 11 250 45.1 45.1 0.10 0.74 0.64 50 998.7
20200225142005 11 250 45.1 45.1 0.10 0.74 0.64 50 998.7
20200225141505 11 250 45.1 45.1 0.10 0.74 0.64 51 998.7
20200225141006 11 250 45.1 45.1 0.10 0.74 0.64 51 998.7
20200225140005 11 250 37.0 37.0 0.00 0.64 0.53 50 998.7
20200225135505 11 250 37.0 37.0 0.00 0.64 0.53 50 998.7
20200225135005 11 250 37.0 37.0 0.00 0.64 0.53 52 998.7
20200225134505 11 250 37.0 37.0 0.00 0.64 0.53 56 998.7
20200225134006 11 250 37.0 37.0 0.00 0.64 0.53 59 998.7
20200225133505 11 250 37.0 38.6 0.00 0.64 0.53 59 998.7
20200225133005 11 240 38.6 38.6 0.00 0.64 0.53 57 998.7
20200225132505 11 240 38.6 38.6 0.00 0.64 0.53 58 998.7
20200225132005 11 240 38.6 38.6 0.00 0.64 0.53 62 998.7
20200225131505 11 240 38.6 38.6 0.00 0.64 0.53 64 998.7
20200225131005 11 240 38.6 38.6 0.00 0.64 0.53 67 998.7
20200225130005 10 240 29.0 29.0 0.00 0.64 0.53 74 999.7
20200225125507 10 240 29.0 29.0 0.00 0.64 0.53 76 999.7
20200225125006 10 240 29.0 29.0 0.00 0.64 0.53 78 999.7
20200225124505 10 240 29.0 29.0 0.00 0.64 0.53 83 998.7
20200225124005 10 240 29.0 29.0 0.00 0.64 0.53 86 998.7
20200225123505 10 240 29.0 35.4 0.00 0.64 0.53 86 998.7
20200225123006 10 240 35.4 35.4 0.00 0.64 0.53 88 998.7
20200225122504 10 240 35.4 35.4 0.00 0.64 0.53 88 998.7
20200225122006 9 240 35.4 35.4 0.00 0.64 0.53 88 998.7
20200225121505 9 240 35.4 35.4 0.00 0.64 0.53 90 998.7
20200225121005 9 240 35.4 40.2 0.00 0.64 0.53 92 998.7
20200225120005 9 240 40.2 40.2 0.00 0.64 0.53 93 997.7
20200225115509 9 240 40.2 40.2 0.00 0.64 0.53 94 997.7
20200225115005 8 240 40.2 40.2 0.00 0.64 0.53 94 997.7
20200225114505 8 240 40.2 40.2 0.00 0.64 0.53 96 998.7
20200225114005 8 240 40.2 40.2 0.10 0.64 0.53 96 998.7
20200225113504 8 240 40.2 40.2 0.10 0.64 0.53 96 998.7
20200225113006 8 230 33.8 33.8 0.10 0.64 0.53 96 998.7
20200225112506 8 230 33.8 33.8 0.10 0.64 0.53 96 998.7
20200225112006 8 230 33.8 33.8 0.10 0.64 0.53 95 998.7
20200225111505 8 230 33.8 33.8 0.10 0.64 0.53 96 998.7
20200225111010 8 230 33.8 33.8 0.10 0.64 0.53 96 998.7
20200225110005 8 240 32.2 32.2 0.10 0.64 0.53 97 999.7
20200225105504 8 240 32.2 32.2 0.10 0.64 0.53 97 999.7
20200225105005 8 240 32.2 32.2 0.10 0.64 0.53 96 999.7
20200225104506 8 240 32.2 32.2 0.10 0.64 0.53 96 999.7
20200225104005 8 240 32.2 32.2 0.00 0.53 0.43 96 999.7
20200225103505 8 240 32.2 32.2 0.00 0.53 0.43 95 999.7
20200225103006 8 240 27.4 27.4 0.10 0.53 0.43 94 999.7
20200225102505 8 240 27.4 27.4 0.20 0.53 0.43 96 999.7
20200225102005 8 240 27.4 27.4 0.20 0.53 0.43 96 999.7
20200225101504 8 240 27.4 27.4 0.30 0.53 0.43 97 999.7
20200225101005 8 240 27.4 27.4 0.30 0.53 0.43 98 999.7
20200225100006 8 230 25.7 25.7 0.30 0.53 0.43 98 999.7
20200225095505 8 230 25.7 25.7 0.43 0.53 0.43 98 999.7
20200225095011 8 230 25.7 25.7 0.43 0.53 0.43 98 999.7
20200225094505 8 230 25.7 25.7 0.43 0.53 0.43 98 999.7
20200225094005 8 230 25.7 25.7 0.43 0.53 0.43 98 999.7
20200225093504 8 230 25.7 25.7 0.43 0.53 0.43 97 999.7
20200225093005 8 220 22.5 22.5 0.33 0.43 0.33 96 999.7
20200225092504 8 220 22.5 22.5 0.23 0.33 0.23 95 999.7
20200225092005 8 220 22.5 22.5 0.23 0.33 0.23 94 999.7
20200225091504 8 220 22.5 22.5 0.13 0.23 0.13 94 999.7
20200225091005 8 220 22.5 27.4 0.13 0.23 0.13 93 999.7
20200225090005 9 220 27.4 27.4 0.13 0.23 0.13 92 1000.7
20200225085504 9 220 27.4 27.4 0.00 0.10 0.00 90 1000.7
20200225085005 10 220 27.4 27.4 0.00 0.10 0.00 88 1000.7
20200225084504 10 220 27.4 27.4 0.00 0.10 0.00 86 1000.7
20200225084004 10 220 27.4 27.4 0.00 0.10 0.00 84 1000.7
20200225083505 10 220 27.4 27.4 0.00 0.10 0.00 82 1000.7
20200225083005 10 220 25.7 25.7 0.00 0.10 0.00 81 1000.7
20200225082510 10 220 25.7 25.7 0.00 0.10 0.00 79 1000.7
20200225082005 10 220 25.7 25.7 0.00 0.10 0.00 79 1000.7
20200225081508 10 220 25.7 25.7 0.00 0.10 0.00 79 1000.7
20200225081005 10 220 25.7 25.7 0.00 0.10 0.00 78 1000.7
20200225080005 10 240 25.7 25.7 0.00 0.10 0.00 79 1000.7
20200225075505 10 240 25.7 25.7 0.00 0.10 0.00 80 1000.7
20200225075004 10 240 25.7 25.7 0.00 0.10 0.00 80 1000.7
20200225074506 10 240 25.7 25.7 0.00 0.10 0.00 80 1000.7
20200225074006 10 240 25.7 25.7 0.00 0.10 0.00 81 1000.7
20200225073505 10 240 25.7 25.7 0.00 0.10 0.00 81 1000.7
20200225073007 10 270 16.1 16.1 0.00 0.10 0.00 81 1000.7
20200225072506 10 270 16.1 16.1 0.00 0.10 0.00 81 1000.7
20200225072005 10 270 16.1 16.1 0.00 0.10 0.00 81 1000.7
20200225071505 10 270 16.1 16.1 0.00 0.10 0.00 81 1001.7
20200225071005 10 270 16.1 33.8 0.00 0.10 0.00 81 1001.7
20200225070004 10 240 33.8 33.8 0.00 0.10 0.00 81 1000.7
20200225065505 10 240 33.8 33.8 0.00 0.10 0.00 81 1000.7
20200225065007 10 240 33.8 33.8 0.00 0.10 0.00 81 1000.7
20200225064504 10 240 33.8 33.8 0.00 0.10 0.00 80 1000.7
20200225064004 10 240 33.8 33.8 0.00 0.10 0.00 81 1000.7
20200225063506 10 240 33.8 33.8 0.00 0.10 0.00 81 1000.7
20200225063005 10 230 25.7 25.7 0.00 0.10 0.00 81 1000.7
20200225062505 10 230 25.7 25.7 0.00 0.10 0.00 81 1000.7
20200225062006 10 230 25.7 25.7 0.00 0.10 0.00 81 1000.7
20200225061504 10 230 25.7 25.7 0.00 0.10 0.00 82 1000.7
20200225061005 10 230 25.7 25.7 0.00 0.10 0.00 83 1000.7
20200225060006 10 230 24.1 24.1 0.00 0.10 0.00 83 1000.7
20200225055504 10 230 24.1 24.1 0.00 0.10 0.00 83 1000.7
20200225055005 10 230 24.1 24.1 0.00 0.10 0.00 83 1000.7
20200225054505 10 230 24.1 24.1 0.00 0.10 0.00 82 1000.7
20200225054005 10 230 24.1 24.1 0.00 0.10 0.00 82 1000.7
20200225053504 10 230 24.1 25.7 0.00 0.10 0.00 82 1000.7
20200225053005 10 230 25.7 25.7 0.00 0.10 0.00 81 1000.7
20200225052504 10 230 25.7 25.7 0.00 0.10 0.00 81 1000.7
20200225052004 10 230 25.7 25.7 0.00 0.10 0.00 81 1000.7
20200225051004 10 230 25.7 25.7 0.00 0.10 0.00 80 1000.7
20200225050004 10 230 25.7 25.7 0.00 0.10 0.00 80 999.7
20200225045505 10 230 25.7 25.7 0.00 0.10 0.00 80 999.7
20200225045006 10 230 25.7 25.7 0.00 0.10 0.00 80 999.7
20200225044504 10 230 25.7 25.7 0.00 0.10 0.00 80 1000.7
20200225044006 10 230 25.7 25.7 0.00 0.10 0.00 80 1000.7
20200225043504 10 230 25.7 27.4 0.00 0.10 0.00 80 1000.7
20200225043005 10 230 27.4 27.4 0.00 0.10 0.00 79 1000.7
20200225042504 10 230 27.4 27.4 0.00 0.10 0.00 79 1000.7
20200225042005 10 230 27.4 27.4 0.00 0.10 0.00 79 1000.7
20200225041504 10 230 27.4 27.4 0.00 0.10 0.00 79 1000.7
20200225041005 10 230 27.4 37.0 0.00 0.10 0.00 79 1000.7
20200225040005 10 230 37.0 37.0 0.00 0.10 0.00 79 1000.7
20200225035504 10 230 37.0 37.0 0.00 0.10 0.00 78 1000.7
20200225035004 10 230 37.0 37.0 0.00 0.10 0.00 78 1000.7
20200225034504 10 230 37.0 37.0 0.00 0.10 0.00 78 1000.7
20200225034005 10 230 37.0 37.0 0.00 0.10 0.00 78 1000.7
20200225033504 10 230 37.0 37.0 0.00 0.10 0.00 78 1000.7
20200225033004 10 220 33.8 33.8 0.00 0.10 0.00 78 1000.7
20200225032504 10 220 33.8 33.8 0.00 0.10 0.00 78 1000.7
20200225032005 10 220 33.8 33.8 0.00 0.10 0.00 77 1000.7
20200225031505 10 220 33.8 33.8 0.00 0.10 0.00 77 1000.7
20200225031004 10 220 33.8 33.8 0.00 0.10 0.00 77 1000.7
20200225030004 10 220 25.7 25.7 0.00 0.10 0.00 77 1000.7
20200225025504 10 220 25.7 25.7 0.00 0.10 0.00 77 1000.7
20200225025006 10 220 25.7 25.7 0.00 0.10 0.00 76 1000.7
20200225024504 10 220 25.7 25.7 0.00 0.10 0.00 76 1001.7
20200225024004 10 220 25.7 25.7 0.00 0.10 0.00 77 1001.7
20200225023504 10 220 25.7 25.7 0.00 0.10 0.00 77 1001.7
20200225023004 10 230 22.5 22.5 0.00 0.10 0.00 77 1001.7
20200225022504 10 230 22.5 22.5 0.00 0.10 0.00 77 1001.7
20200225022004 10 230 22.5 22.5 0.00 0.10 0.00 78 1001.7
20200225021504 10 230 22.5 22.5 0.00 0.10 0.00 78 1001.7
20200225021004 10 230 22.5 29.0 0.00 0.10 0.00 78 1001.7
20200225020004 10 230 29.0 29.0 0.00 0.10 0.00 78 1002.7
20200225015505 10 230 29.0 29.0 0.00 0.10 0.00 79 1002.7